Location: Linton
(52.0940°N, 0.2850°E)
Time: 21:56:38
(UTC+01:00)

ISS - Pass Details

Date: 13 October 2017
Orbit: 400 x 408 km, 51.6° (Epoch: 24 October)

Event Time Altitude Azimuth Distance (km) Brightness Sun altitude
Rises 19:03:37 0° 282° (WNW) 2,327 1.9 -9.2°
Reaches altitude 10° 19:05:52 10° 270° (W) 1,466 0.7 -9.5°
Maximum altitude 19:08:43 27° 210° (SSW) 810 -2.0 -10.0°
Drops below altitude 10° 19:11:34 10° 150° (SSE) 1,463 -1.3 -10.4°
Enters shadow 19:12:35 - 143° (SE) 1,845 -0.9 -10.6°
